Terug naar catalogus

COSMOS 1124 DEB

ActiefHEO
NORAD 12814·DEBRIS·🇷🇺 Russia

Gelanceerd Aug 28, 1979 vanaf Plesetsk Cosmodrome

Loading…

Volgende Passages (komende 24 uur)

TLE

VersSource: Space-Track

Epoch: Sep 13, 2026, 08:44 UTC

1 12814U 79077E   26256.36399792  .00022204  00000-0  18081-1 0  9994
2 12814  60.2548 198.3751 7300799  72.8540 349.9741  2.22636382 65033

Volg COSMOS 1124 DEB in realtime met AllMySat

Download on the App Store